This is the latest recevied weather packets stored in our database for station/object VE3EP-1. If no packets are shown the sender has not sent any weather packets the latest 10 day(s).
| Time | Temp. | Humidity | Pressure | Rain* | Wind** | Luminosity | Snow |
|---|---|---|---|---|---|---|---|
| 1777861328 | 7.78° C | 91% | 1011.1 hPa | 0.51 mm | - | - | - |
| 1777860729 | 7.78° C | 91% | 1011.4 hPa | 0.25 mm | - | - | - |
| 1777860128 | 7.78° C | 91% | 1011.1 hPa | 0.51 mm | - | - | - |
| 1777859528 | 7.22° C | 92% | 1011 hPa | 0.51 mm | - | - | - |
| 1777858329 | 6.67° C | 89% | 1011.4 hPa | 0.25 mm | - | - | - |
| 1777856529 | 6.67° C | 84% | 1011.5 hPa | 0 mm | - | - | - |
| 1777855929 | 7.22° C | 78% | 1011.6 hPa | 0 mm | - | - | - |
| 1777855329 | 7.22° C | 72% | 1011.5 hPa | 0 mm | - | - | - |
| 1777854730 | 7.22° C | 68% | 1011.3 hPa | 0 mm | - | - | - |
| 1777854129 | 7.22° C | 66% | 1011.1 hPa | 0 mm | - | - | - |
| 1777852929 | 7.22° C | 61% | 1011.2 hPa | 0 mm | - | - | - |
| 1777852329 | 7.22° C | 60% | 1011.2 hPa | 0 mm | - | - | - |
| 1777851728 | 7.22° C | 59% | 1011.3 hPa | 0 mm | - | - | - |
| 1777851129 | 6.67° C | 60% | 1011.3 hPa | 0 mm | - | - | - |
| 1777849929 | 6.67° C | 59% | 1011.2 hPa | 0 mm | - | - | - |
| 1777849329 | 7.22° C | 64% | 1011.3 hPa | 0 mm | - | - | - |
| 1777847529 | 7.22° C | 62% | 1011.3 hPa | 0 mm | - | - | - |
| 1777846929 | 7.22° C | 61% | 1011.3 hPa | 0 mm | - | - | - |
| 1777846329 | 6.67° C | 62% | 1011.2 hPa | 0 mm | - | - | - |
| 1777845728 | 7.78° C | 60% | 1011.4 hPa | 0 mm | - | - | - |
| 1777845129 | 8.33° C | 58% | 1011.7 hPa | 0 mm | - | - | - |
| 1777844528 | 8.89° C | 55% | 1011.7 hPa | 0 mm | - | - | - |
| 1777843929 | 10° C | 50% | 1011.5 hPa | 0 mm | - | - | - |
| 1777843328 | 9.44° C | 47% | 1011.5 hPa | 0 mm | - | - | - |
| 1777842128 | 8.89° C | 48% | 1011.8 hPa | 0 mm | - | - | - |
* Rain latest hour (hover to see other rain measurements)
** Current wind speed in m/s (hover to see current wind gust speed)